Location: Zagreb
(45.8000°N, 16.0000°E)
Time: 01:58:23
(UTC+01:00)

NOAA 16 DEB - Visible Passes

Search period start: 03 February 2023 00:00
Search period end: 13 February 2023 00:00
Orbit: 723 x 810 km, 99.0° (Epoch: 02 February)

Date Brightness Start Highest point End Pass type
(mag) Time Alt. Az. Time Alt. Az. Time Alt. Az.
03 Feb ? 04:23:01 10° SSE 04:27:46 57° ENE 04:28:09 55° NE visible
03 Feb ? 06:03:47 10° SW 06:07:07 18° W 06:08:25 17° WNW visible
03 Feb ? 18:08:10 10° NNE 18:13:19 77° WNW 18:18:33 10° SSW visible
03 Feb ? 19:49:19 10° NNW 19:51:28 13° NW 19:53:36 10° W visible
04 Feb ? 03:47:33 10° ESE 03:51:39 28° ENE 03:51:47 28° ENE visible
04 Feb ? 05:25:57 10° SSW 05:30:27 39° W 05:32:04 30° WNW visible
04 Feb ? 17:31:55 10° NNE 17:36:57 52° E 17:42:04 10° S visible
04 Feb ? 19:11:32 10° N 19:15:35 24° WNW 19:19:41 10° WSW visible
05 Feb ? 03:13:07 10° E 03:15:31 15° ENE 03:15:31 15° ENE visible
05 Feb ? 04:49:08 10° SSE 04:54:00 84° WSW 04:55:47 40° NNW visible
05 Feb ? 06:33:14 10° W 06:33:45 10° W 06:34:15 10° W visible
05 Feb ? 18:34:36 10° N 18:39:31 46° WNW 18:44:30 10° SW visible
06 Feb ? 04:13:05 10° SE 04:17:43 46° ENE 04:19:39 30° NNE visible
06 Feb ? 05:53:05 10° SW 05:56:54 23° W 05:59:56 14° NW visible
06 Feb ? 17:58:02 10° NNE 18:03:14 87° ESE 18:08:31 10° SSW visible
06 Feb ? 19:38:34 10° NNW 19:41:31 16° WNW 19:44:29 10° W visible
07 Feb ? 03:37:49 10° ESE 03:41:36 23° ENE 03:43:51 17° NNE visible
07 Feb ? 05:15:33 10° S 05:20:16 49° W 05:24:10 15° NNW visible
07 Feb ? 19:01:08 10° N 19:05:32 29° WNW 19:10:00 10° WSW visible
08 Feb ? 03:03:53 10° ENE 03:05:42 12° NE 03:07:31 10° NNE visible
08 Feb ? 04:38:56 10° SSE 04:43:48 78° ENE 04:48:46 10° NNW visible
08 Feb ? 06:21:02 10° WSW 06:23:23 13° W 06:25:45 10° WNW visible
08 Feb ? 18:24:17 10° N 18:29:22 58° WNW 18:34:31 10° SSW visible
09 Feb ? 04:03:03 10° SE 04:07:31 37° ENE 04:12:05 10° N visible
09 Feb ? 05:42:20 10° SSW 05:46:32 29° W 05:50:50 10° NW visible
09 Feb ? 17:47:46 10° NNE 17:52:59 71° ESE 17:58:14 10° S visible
09 Feb ? 19:27:52 10° NNW 19:31:24 19° WNW 19:34:59 10° WSW visible
10 Feb ? 03:28:01 10° ESE 03:31:26 19° ENE 03:34:54 10° NNE visible
10 Feb ? 05:05:05 10° S 05:09:54 62° WSW 05:14:52 10° NNW visible
10 Feb ? 18:50:37 10° N 18:55:19 36° WNW 19:00:05 10° SW visible
11 Feb ? 04:28:38 10° SSE 04:33:27 62° ENE 04:38:24 10° N visible
11 Feb ? 06:09:41 10° SW 06:12:52 17° W 06:16:06 10° NW visible
11 Feb ? 18:13:50 10° N 18:19:02 72° WNW 18:24:17 10° SSW visible
11 Feb ? 19:55:09 10° NNW 19:57:05 12° NW 19:59:02 10° WNW visible
12 Feb ? 03:52:56 10° SE 03:57:12 30° ENE 04:01:32 10° N visible
12 Feb ? 05:31:33 10° SSW 05:36:03 36° W 05:40:39 10° NNW visible
12 Feb ? 17:37:23 10° NNE 17:42:33 57° ESE 17:47:45 10° S visible
12 Feb ? 19:17:06 10° N 19:21:07 23° WNW 19:25:10 10° WSW visible
